owner,sensor,date,latitude,longitude,air_temperature,qcFlag 
ADCP,ioos:station:wmo:42361:1,2013-03-19T13:30:00Z,27.5500,-92.4900,21.7,11111222 
ADCP,ioos:station:wmo:42361:1,2013-03-19T14:30:00Z,27.5500,-92.4900,22.2,11111222 
ADCP,ioos:station:wmo:42361:1,2013-03-19T15:30:00Z,27.5500,-92.4900,22.2,11111222 
ADCP,ioos:station:wmo:42361:1,2013-03-19T16:30:00Z,27.5500,-92.4900,22.2,11111222 
ADCP,ioos:station:wmo:42361:1,2013-03-19T17:30:00Z,27.5500,-92.4900,22.8,11111222 
ADCP,ioos:station:wmo:42361:1,2013-03-19T18:30:00Z,27.5500,-92.4900,22.8,11111222 
ADCP,ioos:station:wmo:42361:1,2013-03-19T19:30:00Z,27.5500,-92.4900,23.3,11111222 
ADCP,ioos:station:wmo:42361:1,2013-03-19T20:30:00Z,27.5500,-92.4900,23.3,11111222 
ADCP,ioos:station:wmo:42361:1,2013-03-19T21:30:00Z,27.5500,-92.4900,22.2,11111222 
ADCP,ioos:station:wmo:42361:1,2013-03-19T22:30:00Z,27.5500,-92.4900,22.2,11111222 
ADCP,ioos:station:wmo:42361:1,2013-03-19T23:30:00Z,27.5500,-92.4900,22.2,11111222 
ADCP,ioos:station:wmo:42361:1,2013-03-20T00:30:00Z,27.5500,-92.4900,22.2,11111222 
ADCP,ioos:station:wmo:42361:1,2013-03-20T01:30:00Z,27.5500,-92.4900,21.7,11111222 
ADCP,ioos:station:wmo:42361:1,2013-03-20T02:30:00Z,27.5500,-92.4900,21.7,11111222 
ADCP,ioos:station:wmo:42361:1,2013-03-20T03:30:00Z,27.5500,-92.4900,22.2,11111222 
ADCP,ioos:station:wmo:42361:1,2013-03-20T04:30:00Z,27.5500,-92.4900,22.2,11111222 
ADCP,ioos:station:wmo:42361:1,2013-03-20T05:30:00Z,27.5500,-92.4900,21.7,11111222 
ADCP,ioos:station:wmo:42361:1,2013-03-20T06:30:00Z,27.5500,-92.4900,21.7,11111222 
ADCP,ioos:station:wmo:42361:1,2013-03-20T07:30:00Z,27.5500,-92.4900,21.7,11111222 
ADCP,ioos:station:wmo:42361:1,2013-03-20T08:30:00Z,27.5500,-92.4900,21.1,11111222 
ADCP,ioos:station:wmo:42361:1,2013-03-20T09:30:00Z,27.5500,-92.4900,21.1,11111222 
ADCP,ioos:station:wmo:42361:1,2013-03-20T10:30:00Z,27.5500,-92.4900,20.6,11111222 
ADCP,ioos:station:wmo:42361:1,2013-03-20T11:30:00Z,27.5500,-92.4900,20.6,11111222 
ADCP,ioos:station:wmo:42361:1,2013-03-20T12:30:00Z,27.5500,-92.4900,21.1,11111222 
ADCP,ioos:station:wmo:42361:1,2013-03-20T13:30:00Z,27.5500,-92.4900,20.6,11111222 
ADCP,ioos:station:wmo:42361:1,2013-03-20T14:30:00Z,27.5500,-92.4900,20.0,11111222 
ADCP,ioos:station:wmo:42361:1,2013-03-20T15:30:00Z,27.5500,-92.4900,17.2,11111222 
ADCP,ioos:station:wmo:42361:1,2013-03-20T16:30:00Z,27.5500,-92.4900,17.8,11111222 
ADCP,ioos:station:wmo:42361:1,2013-03-20T17:30:00Z,27.5500,-92.4900,19.4,11111222 
ADCP,ioos:station:wmo:42361:1,2013-03-20T18:30:00Z,27.5500,-92.4900,20.0,11111222 
ADCP,ioos:station:wmo:42361:1,2013-03-20T19:30:00Z,27.5500,-92.4900,20.6,11111222 
ADCP,ioos:station:wmo:42361:1,2013-03-20T20:30:00Z,27.5500,-92.4900,21.7,11111222 
ADCP,ioos:station:wmo:42361:1,2013-03-20T21:30:00Z,27.5500,-92.4900,21.1,11111222 
ADCP,ioos:station:wmo:42361:1,2013-03-20T22:30:00Z,27.5500,-92.4900,20.6,11111222 
ADCP,ioos:station:wmo:42361:1,2013-03-20T23:30:00Z,27.5500,-92.4900,19.4,11111222 
ADCP,ioos:station:wmo:42361:1,2013-03-21T00:30:00Z,27.5500,-92.4900,18.9,11111222 
ADCP,ioos:station:wmo:42361:1,2013-03-21T01:30:00Z,27.5500,-92.4900,18.9,11111222 
ADCP,ioos:station:wmo:42361:1,2013-03-21T02:30:00Z,27.5500,-92.4900,18.9,11111222 
ADCP,ioos:station:wmo:42361:1,2013-03-21T03:30:00Z,27.5500,-92.4900,18.9,11111222 
ADCP,ioos:station:wmo:42361:1,2013-03-21T04:30:00Z,27.5500,-92.4900,18.9,11111222 
ADCP,ioos:station:wmo:42361:1,2013-03-21T05:30:00Z,27.5500,-92.4900,18.9,11111222 
ADCP,ioos:station:wmo:42361:1,2013-03-21T06:30:00Z,27.5500,-92.4900,18.9,11111222 
ADCP,ioos:station:wmo:42361:1,2013-03-21T07:30:00Z,27.5500,-92.4900,18.9,11111222 
ADCP,ioos:station:wmo:42361:1,2013-03-21T08:30:00Z,27.5500,-92.4900,18.9,11111222 
ADCP,ioos:station:wmo:42361:1,2013-03-21T09:30:00Z,27.5500,-92.4900,19.4,11111222 
ADCP,ioos:station:wmo:42361:1,2013-03-21T10:30:00Z,27.5500,-92.4900,18.9,11111222 
ADCP,ioos:station:wmo:42361:1,2013-03-21T11:30:00Z,27.5500,-92.4900,18.9,11111222 
ADCP,ioos:station:wmo:42361:1,2013-03-21T12:30:00Z,27.5500,-92.4900,19.4,11111222 
ADCP,ioos:station:wmo:42361:1,2013-03-21T13:30:00Z,27.5500,-92.4900,19.4,11111222 
ADCP,ioos:station:wmo:42361:1,2013-03-21T14:30:00Z,27.5500,-92.4900,20.0,11111222 
ADCP,ioos:station:wmo:42361:1,2013-03-21T15:30:00Z,27.5500,-92.4900,20.6,11111222 
ADCP,ioos:station:wmo:42361:1,2013-03-21T16:30:00Z,27.5500,-92.4900,20.6,11111222 
ADCP,ioos:station:wmo:42361:1,2013-03-21T17:30:00Z,27.5500,-92.4900,20.6,11111222 
ADCP,ioos:station:wmo:42361:1,2013-03-21T18:30:00Z,27.5500,-92.4900,20.6,11111222 
ADCP,ioos:station:wmo:42361:1,2013-03-21T19:30:00Z,27.5500,-92.4900,21.1,11111222 
ADCP,ioos:station:wmo:42361:1,2013-03-21T20:30:00Z,27.5500,-92.4900,20.6,11111222 
ADCP,ioos:station:wmo:42361:1,2013-03-21T21:30:00Z,27.5500,-92.4900,20.6,11111222 
ADCP,ioos:station:wmo:42361:1,2013-03-21T22:30:00Z,27.5500,-92.4900,20.6,11111222 
ADCP,ioos:station:wmo:42361:1,2013-03-21T23:30:00Z,27.5500,-92.4900,20.6,11111222 
ADCP,ioos:station:wmo:42361:1,2013-03-22T00:30:00Z,27.5500,-92.4900,20.6,11111222 
ADCP,ioos:station:wmo:42361:1,2013-03-22T01:30:00Z,27.5500,-92.4900,20.6,11111222 
ADCP,ioos:station:wmo:42361:1,2013-03-22T02:30:00Z,27.5500,-92.4900,21.1,11111222 
ADCP,ioos:station:wmo:42361:1,2013-03-22T03:30:00Z,27.5500,-92.4900,21.1,11111222 
ADCP,ioos:station:wmo:42361:1,2013-03-22T04:30:00Z,27.5500,-92.4900,21.7,11111222 
ADCP,ioos:station:wmo:42361:1,2013-03-22T05:30:00Z,27.5500,-92.4900,21.1,11111222 
ADCP,ioos:station:wmo:42361:1,2013-03-22T06:30:00Z,27.5500,-92.4900,21.7,11111222 
ADCP,ioos:station:wmo:42361:1,2013-03-22T07:30:00Z,27.5500,-92.4900,21.7,11111222 
ADCP,ioos:station:wmo:42361:1,2013-03-22T08:30:00Z,27.5500,-92.4900,21.7,11111222 
ADCP,ioos:station:wmo:42361:1,2013-03-22T09:30:00Z,27.5500,-92.4900,21.7,11111222 
ADCP,ioos:station:wmo:42361:1,2013-03-22T10:30:00Z,27.5500,-92.4900,21.7,11111222 
ADCP,ioos:station:wmo:42361:1,2013-03-22T11:30:00Z,27.5500,-92.4900,21.7,11111222 
ADCP,ioos:station:wmo:42361:1,2013-03-22T12:30:00Z,27.5500,-92.4900,21.7,11111222 
ADCP,ioos:station:wmo:42361:1,2013-03-22T13:30:00Z,27.5500,-92.4900,21.7,11111222 
ADCP,ioos:station:wmo:42361:1,2013-03-22T14:30:00Z,27.5500,-92.4900,21.7,11111222 
ADCP,ioos:station:wmo:42361:1,2013-03-22T15:30:00Z,27.5500,-92.4900,22.2,11111222 
ADCP,ioos:station:wmo:42361:1,2013-03-22T16:30:00Z,27.5500,-92.4900,22.2,11111222 
ADCP,ioos:station:wmo:42361:1,2013-03-22T17:30:00Z,27.5500,-92.4900,22.2,11111222 
ADCP,ioos:station:wmo:42361:1,2013-03-22T18:30:00Z,27.5500,-92.4900,22.2,11111222 
ADCP,ioos:station:wmo:42361:1,2013-03-22T19:30:00Z,27.5500,-92.4900,22.8,11111222 
ADCP,ioos:station:wmo:42361:1,2013-03-22T20:30:00Z,27.5500,-92.4900,22.8,11111222 
ADCP,ioos:station:wmo:42361:1,2013-03-22T21:30:00Z,27.5500,-92.4900,22.2,11111222 
ADCP,ioos:station:wmo:42361:1,2013-03-22T22:30:00Z,27.5500,-92.4900,22.2,11111222 
ADCP,ioos:station:wmo:42361:1,2013-03-22T23:30:00Z,27.5500,-92.4900,22.2,11111222 
ADCP,ioos:station:wmo:42361:1,2013-03-23T00:30:00Z,27.5500,-92.4900,22.2,11111222 
ADCP,ioos:station:wmo:42361:1,2013-03-23T01:30:00Z,27.5500,-92.4900,22.2,11111222 
ADCP,ioos:station:wmo:42361:1,2013-03-23T02:30:00Z,27.5500,-92.4900,22.2,11111222 
ADCP,ioos:station:wmo:42361:1,2013-03-23T03:30:00Z,27.5500,-92.4900,22.2,11111222 
ADCP,ioos:station:wmo:42361:1,2013-03-23T04:30:00Z,27.5500,-92.4900,22.2,11111222 
ADCP,ioos:station:wmo:42361:1,2013-03-23T05:30:00Z,27.5500,-92.4900,22.2,11111222 
ADCP,ioos:station:wmo:42361:1,2013-03-23T06:30:00Z,27.5500,-92.4900,22.2,11111222 
ADCP,ioos:station:wmo:42361:1,2013-03-23T07:30:00Z,27.5500,-92.4900,22.2,11111222 
ADCP,ioos:station:wmo:42361:1,2013-03-23T08:30:00Z,27.5500,-92.4900,22.2,11111222 
ADCP,ioos:station:wmo:42361:1,2013-03-23T09:30:00Z,27.5500,-92.4900,21.7,11111222 
ADCP,ioos:station:wmo:42361:1,2013-03-23T10:30:00Z,27.5500,-92.4900,21.7,11111222 
ADCP,ioos:station:wmo:42361:1,2013-03-23T11:30:00Z,27.5500,-92.4900,21.7,11111222 
ADCP,ioos:station:wmo:42361:1,2013-03-23T12:30:00Z,27.5500,-92.4900,21.7,11111222 
ADCP,ioos:station:wmo:42361:1,2013-03-23T13:30:00Z,27.5500,-92.4900,22.2,11111222 
ADCP,ioos:station:wmo:42361:1,2013-03-23T14:30:00Z,27.5500,-92.4900,22.2,11111222 
ADCP,ioos:station:wmo:42361:1,2013-03-23T15:30:00Z,27.5500,-92.4900,22.8,11111222 
ADCP,ioos:station:wmo:42361:1,2013-03-23T16:30:00Z,27.5500,-92.4900,22.8,11111222 
ADCP,ioos:station:wmo:42361:1,2013-03-23T17:30:00Z,27.5500,-92.4900,22.8,11111222 
ADCP,ioos:station:wmo:42361:1,2013-03-23T18:30:00Z,27.5500,-92.4900,22.8,11111222 
ADCP,ioos:station:wmo:42361:1,2013-03-23T19:30:00Z,27.5500,-92.4900,22.8,11111222 
ADCP,ioos:station:wmo:42361:1,2013-03-23T20:30:00Z,27.5500,-92.4900,23.3,11111222 
ADCP,ioos:station:wmo:42361:1,2013-03-23T21:30:00Z,27.5500,-92.4900,23.9,11111222 
ADCP,ioos:station:wmo:42361:1,2013-03-23T22:30:00Z,27.5500,-92.4900,23.9,11111222 
ADCP,ioos:station:wmo:42361:1,2013-03-23T23:30:00Z,27.5500,-92.4900,24.4,11111222 
ADCP,ioos:station:wmo:42361:1,2013-03-24T00:30:00Z,27.5500,-92.4900,23.9,11111222 
ADCP,ioos:station:wmo:42361:1,2013-03-24T01:30:00Z,27.5500,-92.4900,23.9,11111222 
ADCP,ioos:station:wmo:42361:1,2013-03-24T02:30:00Z,27.5500,-92.4900,23.9,11111222 
ADCP,ioos:station:wmo:42361:1,2013-03-24T03:30:00Z,27.5500,-92.4900,22.8,11111222 
ADCP,ioos:station:wmo:42361:1,2013-03-24T04:30:00Z,27.5500,-92.4900,22.8,11111222 
ADCP,ioos:station:wmo:42361:1,2013-03-24T05:30:00Z,27.5500,-92.4900,23.3,11111222 
ADCP,ioos:station:wmo:42361:1,2013-03-24T06:30:00Z,27.5500,-92.4900,22.8,11111222 
ADCP,ioos:station:wmo:42361:1,2013-03-24T07:30:00Z,27.5500,-92.4900,22.2,11111222 
ADCP,ioos:station:wmo:42361:1,2013-03-24T08:30:00Z,27.5500,-92.4900,21.7,11111222 
ADCP,ioos:station:wmo:42361:1,2013-03-24T09:30:00Z,27.5500,-92.4900,21.7,11111222 
ADCP,ioos:station:wmo:42361:1,2013-03-24T10:30:00Z,27.5500,-92.4900,21.7,11111222 
ADCP,ioos:station:wmo:42361:1,2013-03-24T11:30:00Z,27.5500,-92.4900,21.7,11111222 
ADCP,ioos:station:wmo:42361:1,2013-03-24T12:30:00Z,27.5500,-92.4900,22.2,11111222 
ADCP,ioos:station:wmo:42361:1,2013-03-24T13:30:00Z,27.5500,-92.4900,21.7,11111222 
ADCP,ioos:station:wmo:42361:1,2013-03-24T14:30:00Z,27.5500,-92.4900,22.2,11111222 
ADCP,ioos:station:wmo:42361:1,2013-03-24T15:30:00Z,27.5500,-92.4900,21.7,11111222 
ADCP,ioos:station:wmo:42361:1,2013-03-24T16:30:00Z,27.5500,-92.4900,22.2,11111222 
ADCP,ioos:station:wmo:42361:1,2013-03-24T17:30:00Z,27.5500,-92.4900,22.2,11111222 
ADCP,ioos:station:wmo:42361:1,2013-03-24T18:30:00Z,27.5500,-92.4900,21.7,11111222 
ADCP,ioos:station:wmo:42361:1,2013-03-24T19:30:00Z,27.5500,-92.4900,21.1,11111222 
ADCP,ioos:station:wmo:42361:1,2013-03-24T20:30:00Z,27.5500,-92.4900,21.1,11111222 
ADCP,ioos:station:wmo:42361:1,2013-03-24T21:30:00Z,27.5500,-92.4900,20.6,11111222 
ADCP,ioos:station:wmo:42361:1,2013-03-24T22:30:00Z,27.5500,-92.4900,19.4,11111222 
ADCP,ioos:station:wmo:42361:1,2013-03-24T23:30:00Z,27.5500,-92.4900,18.9,11111222 
ADCP,ioos:station:wmo:42361:1,2013-03-25T00:30:00Z,27.5500,-92.4900,18.3,11111222 
ADCP,ioos:station:wmo:42361:1,2013-03-25T01:30:00Z,27.5500,-92.4900,18.3,11111222 
ADCP,ioos:station:wmo:42361:1,2013-03-25T02:30:00Z,27.5500,-92.4900,17.8,11111222 
ADCP,ioos:station:wmo:42361:1,2013-03-25T03:30:00Z,27.5500,-92.4900,17.8,11111222 
ADCP,ioos:station:wmo:42361:1,2013-03-25T04:30:00Z,27.5500,-92.4900,17.8,11111222 
ADCP,ioos:station:wmo:42361:1,2013-03-25T05:30:00Z,27.5500,-92.4900,17.2,11111222 
ADCP,ioos:station:wmo:42361:1,2013-03-25T06:30:00Z,27.5500,-92.4900,16.1,11111222 
ADCP,ioos:station:wmo:42361:1,2013-03-25T07:30:00Z,27.5500,-92.4900,15.6,11111222 
ADCP,ioos:station:wmo:42361:1,2013-03-25T08:30:00Z,27.5500,-92.4900,15.0,11111222 
ADCP,ioos:station:wmo:42361:1,2013-03-25T09:30:00Z,27.5500,-92.4900,14.4,11111222 
ADCP,ioos:station:wmo:42361:1,2013-03-25T10:30:00Z,27.5500,-92.4900,13.9,11111222 
ADCP,ioos:station:wmo:42361:1,2013-03-25T11:30:00Z,27.5500,-92.4900,13.3,11111222 
ADCP,ioos:station:wmo:42361:1,2013-03-25T12:30:00Z,27.5500,-92.4900,13.3,11111222 
ADCP,ioos:station:wmo:42361:1,2013-03-25T13:30:00Z,27.5500,-92.4900,13.3,11111222 
ADCP,ioos:station:wmo:42361:1,2013-03-25T14:30:00Z,27.5500,-92.4900,15.0,11111222 
ADCP,ioos:station:wmo:42361:1,2013-03-25T15:30:00Z,27.5500,-92.4900,15.6,11111222 
ADCP,ioos:station:wmo:42361:1,2013-03-25T16:30:00Z,27.5500,-92.4900,15.6,11111222 
ADCP,ioos:station:wmo:42361:1,2013-03-25T17:30:00Z,27.5500,-92.4900,16.1,11111222 
ADCP,ioos:station:wmo:42361:1,2013-03-25T18:30:00Z,27.5500,-92.4900,16.1,11111222 
ADCP,ioos:station:wmo:42361:1,2013-03-25T19:30:00Z,27.5500,-92.4900,15.6,11111222 
ADCP,ioos:station:wmo:42361:1,2013-03-25T20:30:00Z,27.5500,-92.4900,16.1,11111222 
ADCP,ioos:station:wmo:42361:1,2013-03-25T21:30:00Z,27.5500,-92.4900,15.6,11111222 
ADCP,ioos:station:wmo:42361:1,2013-03-25T22:30:00Z,27.5500,-92.4900,16.1,11111222 
ADCP,ioos:station:wmo:42361:1,2013-03-25T23:30:00Z,27.5500,-92.4900,15.0,11111222 
ADCP,ioos:station:wmo:42361:1,2013-03-26T00:30:00Z,27.5500,-92.4900,15.0,11111222 
ADCP,ioos:station:wmo:42361:1,2013-03-26T01:30:00Z,27.5500,-92.4900,15.0,11111222 
ADCP,ioos:station:wmo:42361:1,2013-03-26T02:30:00Z,27.5500,-92.4900,15.6,11111222 
ADCP,ioos:station:wmo:42361:1,2013-03-26T03:30:00Z,27.5500,-92.4900,15.6,11111222 
ADCP,ioos:station:wmo:42361:1,2013-03-26T04:30:00Z,27.5500,-92.4900,16.1,11111222 
ADCP,ioos:station:wmo:42361:1,2013-03-26T05:30:00Z,27.5500,-92.4900,16.1,11111222 
ADCP,ioos:station:wmo:42361:1,2013-03-26T06:30:00Z,27.5500,-92.4900,16.7,11111222 
ADCP,ioos:station:wmo:42361:1,2013-03-26T07:30:00Z,27.5500,-92.4900,16.7,11111222 
ADCP,ioos:station:wmo:42361:1,2013-03-26T08:30:00Z,27.5500,-92.4900,16.1,11111222 
ADCP,ioos:station:wmo:42361:1,2013-03-26T09:30:00Z,27.5500,-92.4900,16.1,11111222 
ADCP,ioos:station:wmo:42361:1,2013-03-26T10:30:00Z,27.5500,-92.4900,15.0,11111222 
ADCP,ioos:station:wmo:42361:1,2013-03-26T11:30:00Z,27.5500,-92.4900,15.0,11111222 
ADCP,ioos:station:wmo:42361:1,2013-03-26T12:30:00Z,27.5500,-92.4900,14.4,11111222 
ADCP,ioos:station:wmo:42361:1,2013-03-26T13:30:00Z,27.5500,-92.4900,14.4,11111222 
ADCP,ioos:station:wmo:42361:1,2013-03-26T14:30:00Z,27.5500,-92.4900,15.0,11111222 
ADCP,ioos:station:wmo:42361:1,2013-03-26T15:30:00Z,27.5500,-92.4900,16.1,11111222 
ADCP,ioos:station:wmo:42361:1,2013-03-26T16:30:00Z,27.5500,-92.4900,16.1,11111222 
ADCP,ioos:station:wmo:42361:1,2013-03-26T17:30:00Z,27.5500,-92.4900,15.6,11111222 
ADCP,ioos:station:wmo:42361:1,2013-03-26T18:30:00Z,27.5500,-92.4900,15.0,11111222 
ADCP,ioos:station:wmo:42361:1,2013-03-26T19:30:00Z,27.5500,-92.4900,16.1,11111222 
ADCP,ioos:station:wmo:42361:1,2013-03-26T20:30:00Z,27.5500,-92.4900,15.0,11111222 
ADCP,ioos:station:wmo:42361:1,2013-03-26T21:30:00Z,27.5500,-92.4900,15.0,11111222 
ADCP,ioos:station:wmo:42361:1,2013-03-26T22:30:00Z,27.5500,-92.4900,14.4,11111222 
ADCP,ioos:station:wmo:42361:1,2013-03-26T23:30:00Z,27.5500,-92.4900,14.4,11111222 
ADCP,ioos:station:wmo:42361:1,2013-03-27T00:30:00Z,27.5500,-92.4900,13.9,11111222 
ADCP,ioos:station:wmo:42361:1,2013-03-27T01:30:00Z,27.5500,-92.4900,13.3,11111222 
ADCP,ioos:station:wmo:42361:1,2013-03-27T02:30:00Z,27.5500,-92.4900,13.3,11111222 
ADCP,ioos:station:wmo:42361:1,2013-03-27T03:30:00Z,27.5500,-92.4900,12.8,11111222 
ADCP,ioos:station:wmo:42361:1,2013-03-27T04:30:00Z,27.5500,-92.4900,13.3,11111222 
ADCP,ioos:station:wmo:42361:1,2013-03-27T05:30:00Z,27.5500,-92.4900,13.3,11111222 
ADCP,ioos:station:wmo:42361:1,2013-03-27T06:30:00Z,27.5500,-92.4900,13.3,11111222 
ADCP,ioos:station:wmo:42361:1,2013-03-27T07:30:00Z,27.5500,-92.4900,13.3,11111222 
ADCP,ioos:station:wmo:42361:1,2013-03-27T08:30:00Z,27.5500,-92.4900,13.9,11111222 
ADCP,ioos:station:wmo:42361:1,2013-03-27T09:30:00Z,27.5500,-92.4900,13.3,11111222 
ADCP,ioos:station:wmo:42361:1,2013-03-27T10:30:00Z,27.5500,-92.4900,13.3,11111222 
ADCP,ioos:station:wmo:42361:1,2013-03-27T11:30:00Z,27.5500,-92.4900,13.9,11111222 
ADCP,ioos:station:wmo:42361:1,2013-03-27T12:30:00Z,27.5500,-92.4900,13.9,11111222 
ADCP,ioos:station:wmo:42361:1,2013-03-27T13:30:00Z,27.5500,-92.4900,14.4,11111222 
ADCP,ioos:station:wmo:42361:1,2013-03-27T14:30:00Z,27.5500,-92.4900,16.1,11111222 
ADCP,ioos:station:wmo:42361:1,2013-03-27T15:30:00Z,27.5500,-92.4900,16.1,11111222 
ADCP,ioos:station:wmo:42361:1,2013-03-27T16:30:00Z,27.5500,-92.4900,16.1,11111222 
ADCP,ioos:station:wmo:42361:1,2013-03-27T17:30:00Z,27.5500,-92.4900,16.7,11111222 
ADCP,ioos:station:wmo:42361:1,2013-03-27T18:30:00Z,27.5500,-92.4900,16.7,11111222 
ADCP,ioos:station:wmo:42361:1,2013-03-27T19:30:00Z,27.5500,-92.4900,16.1,11111222 
ADCP,ioos:station:wmo:42361:1,2013-03-27T20:30:00Z,27.5500,-92.4900,16.7,11111222 
ADCP,ioos:station:wmo:42361:1,2013-03-27T21:30:00Z,27.5500,-92.4900,16.7,11111222 
ADCP,ioos:station:wmo:42361:1,2013-03-27T22:30:00Z,27.5500,-92.4900,17.2,11111222 
ADCP,ioos:station:wmo:42361:1,2013-03-27T23:30:00Z,27.5500,-92.4900,16.7,11111222 
ADCP,ioos:station:wmo:42361:1,2013-03-28T00:30:00Z,27.5500,-92.4900,16.1,11111222 
ADCP,ioos:station:wmo:42361:1,2013-03-28T01:30:00Z,27.5500,-92.4900,16.1,11111222 
ADCP,ioos:station:wmo:42361:1,2013-03-28T02:30:00Z,27.5500,-92.4900,16.1,11111222 
ADCP,ioos:station:wmo:42361:1,2013-03-28T03:30:00Z,27.5500,-92.4900,16.1,11111222 
ADCP,ioos:station:wmo:42361:1,2013-03-28T04:30:00Z,27.5500,-92.4900,16.7,11111222 
ADCP,ioos:station:wmo:42361:1,2013-03-28T05:30:00Z,27.5500,-92.4900,16.7,11111222 
ADCP,ioos:station:wmo:42361:1,2013-03-28T06:30:00Z,27.5500,-92.4900,16.7,11111222 
ADCP,ioos:station:wmo:42361:1,2013-03-28T07:30:00Z,27.5500,-92.4900,16.7,11111222 
ADCP,ioos:station:wmo:42361:1,2013-03-28T08:30:00Z,27.5500,-92.4900,16.7,11111222 
ADCP,ioos:station:wmo:42361:1,2013-03-28T09:30:00Z,27.5500,-92.4900,17.2,11111222 
ADCP,ioos:station:wmo:42361:1,2013-03-28T10:30:00Z,27.5500,-92.4900,17.2,11111222 
ADCP,ioos:station:wmo:42361:1,2013-03-28T11:30:00Z,27.5500,-92.4900,17.2,11111222 
ADCP,ioos:station:wmo:42361:1,2013-03-28T12:30:00Z,27.5500,-92.4900,17.8,11111222 
ADCP,ioos:station:wmo:42361:1,2013-03-28T13:30:00Z,27.5500,-92.4900,17.8,11111222 
ADCP,ioos:station:wmo:42361:1,2013-03-28T14:30:00Z,27.5500,-92.4900,19.4,11111222 
ADCP,ioos:station:wmo:42361:1,2013-03-28T15:30:00Z,27.5500,-92.4900,18.9,11111222 
ADCP,ioos:station:wmo:42361:1,2013-03-28T16:30:00Z,27.5500,-92.4900,19.4,11111222 
ADCP,ioos:station:wmo:42361:1,2013-03-28T17:30:00Z,27.5500,-92.4900,20.6,11111222 
ADCP,ioos:station:wmo:42361:1,2013-03-28T18:30:00Z,27.5500,-92.4900,20.0,11111222 
ADCP,ioos:station:wmo:42361:1,2013-03-28T19:30:00Z,27.5500,-92.4900,20.6,11111222 
ADCP,ioos:station:wmo:42361:1,2013-03-28T20:30:00Z,27.5500,-92.4900,20.6,11111222 
ADCP,ioos:station:wmo:42361:1,2013-03-28T21:30:00Z,27.5500,-92.4900,21.1,11111222 
ADCP,ioos:station:wmo:42361:1,2013-03-28T22:30:00Z,27.5500,-92.4900,20.6,11111222 
ADCP,ioos:station:wmo:42361:1,2013-03-28T23:30:00Z,27.5500,-92.4900,20.6,11111222 
ADCP,ioos:station:wmo:42361:1,2013-03-29T00:30:00Z,27.5500,-92.4900,19.4,11111222 
ADCP,ioos:station:wmo:42361:1,2013-03-29T01:30:00Z,27.5500,-92.4900,19.4,11111222 
ADCP,ioos:station:wmo:42361:1,2013-03-29T02:30:00Z,27.5500,-92.4900,19.4,11111222 
ADCP,ioos:station:wmo:42361:1,2013-03-29T03:30:00Z,27.5500,-92.4900,19.4,11111222 
ADCP,ioos:station:wmo:42361:1,2013-03-29T04:30:00Z,27.5500,-92.4900,19.4,11111222 
ADCP,ioos:station:wmo:42361:1,2013-03-29T05:30:00Z,27.5500,-92.4900,19.4,11111222 
ADCP,ioos:station:wmo:42361:1,2013-03-29T06:30:00Z,27.5500,-92.4900,19.4,11111222 
ADCP,ioos:station:wmo:42361:1,2013-03-29T07:30:00Z,27.5500,-92.4900,19.4,11111222 
ADCP,ioos:station:wmo:42361:1,2013-03-29T08:30:00Z,27.5500,-92.4900,19.4,11111222 
ADCP,ioos:station:wmo:42361:1,2013-03-29T09:30:00Z,27.5500,-92.4900,19.4,11111222 
ADCP,ioos:station:wmo:42361:1,2013-03-29T10:30:00Z,27.5500,-92.4900,19.4,11111222 
ADCP,ioos:station:wmo:42361:1,2013-03-29T11:30:00Z,27.5500,-92.4900,19.4,11111222 
ADCP,ioos:station:wmo:42361:1,2013-03-29T12:30:00Z,27.5500,-92.4900,19.4,11111222 
ADCP,ioos:station:wmo:42361:1,2013-03-29T13:30:00Z,27.5500,-92.4900,20.0,11111222 
ADCP,ioos:station:wmo:42361:1,2013-03-29T14:30:00Z,27.5500,-92.4900,21.1,11111222 
ADCP,ioos:station:wmo:42361:1,2013-03-29T15:30:00Z,27.5500,-92.4900,21.7,11111222 
ADCP,ioos:station:wmo:42361:1,2013-03-29T16:30:00Z,27.5500,-92.4900,21.7,11111222 
ADCP,ioos:station:wmo:42361:1,2013-03-29T17:30:00Z,27.5500,-92.4900,21.7,11111222 
ADCP,ioos:station:wmo:42361:1,2013-03-29T18:30:00Z,27.5500,-92.4900,21.7,11111222 
ADCP,ioos:station:wmo:42361:1,2013-03-29T19:30:00Z,27.5500,-92.4900,21.7,11111222 
ADCP,ioos:station:wmo:42361:1,2013-03-29T20:30:00Z,27.5500,-92.4900,21.7,11111222 
ADCP,ioos:station:wmo:42361:1,2013-03-29T21:30:00Z,27.5500,-92.4900,21.1,11111222 
ADCP,ioos:station:wmo:42361:1,2013-03-29T22:30:00Z,27.5500,-92.4900,21.7,11111222 
ADCP,ioos:station:wmo:42361:1,2013-03-29T23:30:00Z,27.5500,-92.4900,21.1,11111222 
ADCP,ioos:station:wmo:42361:1,2013-03-30T00:30:00Z,27.5500,-92.4900,20.6,11111222 
ADCP,ioos:station:wmo:42361:1,2013-03-30T01:30:00Z,27.5500,-92.4900,21.1,11111222 
ADCP,ioos:station:wmo:42361:1,2013-03-30T02:30:00Z,27.5500,-92.4900,21.1,11111222 
ADCP,ioos:station:wmo:42361:1,2013-03-30T03:30:00Z,27.5500,-92.4900,21.1,11111222 
ADCP,ioos:station:wmo:42361:1,2013-03-30T04:30:00Z,27.5500,-92.4900,21.1,11111222 
ADCP,ioos:station:wmo:42361:1,2013-03-30T05:30:00Z,27.5500,-92.4900,21.1,11111222 
ADCP,ioos:station:wmo:42361:1,2013-03-30T06:30:00Z,27.5500,-92.4900,21.1,11111222 
ADCP,ioos:station:wmo:42361:1,2013-03-30T07:30:00Z,27.5500,-92.4900,20.6,11111222 
ADCP,ioos:station:wmo:42361:1,2013-03-30T08:30:00Z,27.5500,-92.4900,21.1,11111222 
ADCP,ioos:station:wmo:42361:1,2013-03-30T09:30:00Z,27.5500,-92.4900,21.1,11111222 
ADCP,ioos:station:wmo:42361:1,2013-03-30T10:30:00Z,27.5500,-92.4900,20.6,11111222 
ADCP,ioos:station:wmo:42361:1,2013-03-30T11:30:00Z,27.5500,-92.4900,21.1,11111222 
ADCP,ioos:station:wmo:42361:1,2013-03-30T12:30:00Z,27.5500,-92.4900,21.1,11111222 
ADCP,ioos:station:wmo:42361:1,2013-03-30T13:30:00Z,27.5500,-92.4900,21.1,11111222 
ADCP,ioos:station:wmo:42361:1,2013-03-30T14:30:00Z,27.5500,-92.4900,21.7,11111222 
ADCP,ioos:station:wmo:42361:1,2013-03-30T15:30:00Z,27.5500,-92.4900,21.7,11111222 
ADCP,ioos:station:wmo:42361:1,2013-03-30T16:30:00Z,27.5500,-92.4900,21.7,11111222 
ADCP,ioos:station:wmo:42361:1,2013-03-30T17:30:00Z,27.5500,-92.4900,21.7,11111222 
ADCP,ioos:station:wmo:42361:1,2013-03-30T18:30:00Z,27.5500,-92.4900,21.7,11111222 
ADCP,ioos:station:wmo:42361:1,2013-03-30T19:30:00Z,27.5500,-92.4900,21.7,11111222 
ADCP,ioos:station:wmo:42361:1,2013-03-30T20:30:00Z,27.5500,-92.4900,21.7,11111222 
ADCP,ioos:station:wmo:42361:1,2013-03-30T21:30:00Z,27.5500,-92.4900,21.7,11111222 
ADCP,ioos:station:wmo:42361:1,2013-03-30T22:30:00Z,27.5500,-92.4900,21.7,11111222 
ADCP,ioos:station:wmo:42361:1,2013-03-30T23:30:00Z,27.5500,-92.4900,21.1,11111222 
ADCP,ioos:station:wmo:42361:1,2013-03-31T00:30:00Z,27.5500,-92.4900,21.1,11111222 
ADCP,ioos:station:wmo:42361:1,2013-03-31T01:30:00Z,27.5500,-92.4900,21.1,11111222 
ADCP,ioos:station:wmo:42361:1,2013-03-31T02:30:00Z,27.5500,-92.4900,21.1,11111222 
ADCP,ioos:station:wmo:42361:1,2013-03-31T03:30:00Z,27.5500,-92.4900,21.1,11111222 
ADCP,ioos:station:wmo:42361:1,2013-03-31T04:30:00Z,27.5500,-92.4900,21.1,11111222 
ADCP,ioos:station:wmo:42361:1,2013-03-31T05:30:00Z,27.5500,-92.4900,21.1,11111222 
ADCP,ioos:station:wmo:42361:1,2013-03-31T06:30:00Z,27.5500,-92.4900,21.1,11111222 
ADCP,ioos:station:wmo:42361:1,2013-03-31T07:30:00Z,27.5500,-92.4900,21.1,11111222 
ADCP,ioos:station:wmo:42361:1,2013-03-31T08:30:00Z,27.5500,-92.4900,21.1,11111222 
ADCP,ioos:station:wmo:42361:1,2013-03-31T09:30:00Z,27.5500,-92.4900,21.1,11111222 
ADCP,ioos:station:wmo:42361:1,2013-03-31T10:30:00Z,27.5500,-92.4900,21.1,11111222 
ADCP,ioos:station:wmo:42361:1,2013-03-31T11:30:00Z,27.5500,-92.4900,21.1,11111222 
ADCP,ioos:station:wmo:42361:1,2013-03-31T12:30:00Z,27.5500,-92.4900,21.1,11111222 